TimeEDT,TemperatureF,Dew PointF,Humidity,Sea Level PressureIn,VisibilityMPH,Wind Direction,Wind SpeedMPH,Gust SpeedMPH,PrecipitationIn,Events,Conditions,WindDirDegrees,DateUTC
12:15 AM,51.8,46.4,82,30.11,10.0,Calm,Calm,-,N/A,,Unknown,0,2012-10-07 04:15:00
12:55 AM,50.0,48.2,94,30.10,10.0,Calm,Calm,-,N/A,,Unknown,0,2012-10-07 04:55:00
1:15 AM,50.0,46.4,87,30.09,10.0,Calm,Calm,-,N/A,,Unknown,0,2012-10-07 05:15:00
1:35 AM,51.8,48.2,88,30.09,10.0,Calm,Calm,-,N/A,,Unknown,0,2012-10-07 05:35:00
1:55 AM,50.0,48.2,94,30.08,10.0,Calm,Calm,-,N/A,Rain,Light Rain,0,2012-10-07 05:55:00
2:15 AM,50.0,46.4,87,30.09,10.0,Calm,Calm,-,N/A,Rain,Light Rain,0,2012-10-07 06:15:00
2:35 AM,50.0,46.4,87,30.09,10.0,Calm,Calm,-,N/A,Rain,Light Rain,0,2012-10-07 06:35:00
2:55 AM,48.2,46.4,93,30.10,10.0,Calm,Calm,-,0.01,Rain,Light Rain,0,2012-10-07 06:55:00
3:15 AM,48.2,46.4,93,30.08,10.0,Calm,Calm,-,N/A,Rain,Light Rain,0,2012-10-07 07:15:00
3:35 AM,48.2,44.6,87,30.08,10.0,Calm,Calm,-,N/A,Rain,Light Rain,0,2012-10-07 07:35:00
3:55 AM,48.2,46.4,93,30.10,10.0,West,3.5,-,N/A,,Unknown,270,2012-10-07 07:55:00
4:15 AM,48.2,44.6,87,30.09,10.0,Calm,Calm,-,N/A,Rain,Light Rain,0,2012-10-07 08:15:00
4:35 AM,48.2,44.6,87,30.08,5.0,Calm,Calm,-,0.01,Rain,Light Rain,0,2012-10-07 08:35:00
4:55 AM,46.4,46.4,100,30.04,7.0,Calm,Calm,-,0.03,Rain,Light Rain,0,2012-10-07 08:55:00
5:15 AM,46.4,46.4,100,30.07,10.0,NW,3.5,-,N/A,,Unknown,320,2012-10-07 09:15:00
5:35 AM,46.4,44.6,93,30.09,10.0,Calm,Calm,-,N/A,,Unknown,0,2012-10-07 09:35:00
5:55 AM,46.4,44.6,93,30.08,10.0,Calm,Calm,-,N/A,,Unknown,0,2012-10-07 09:55:00
6:15 AM,48.2,44.6,87,30.08,10.0,Calm,Calm,-,N/A,,Unknown,0,2012-10-07 10:15:00
6:35 AM,46.4,46.4,100,30.07,10.0,Calm,Calm,-,N/A,,Unknown,0,2012-10-07 10:35:00
6:55 AM,46.4,46.4,100,30.08,10.0,Calm,Calm,-,N/A,,Unknown,0,2012-10-07 10:55:00
7:15 AM,46.4,46.4,100,30.08,10.0,Calm,Calm,-,N/A,,Unknown,0,2012-10-07 11:15:00
7:35 AM,46.4,46.4,100,30.07,10.0,Calm,Calm,-,N/A,Rain,Light Rain,0,2012-10-07 11:35:00
7:55 AM,46.4,46.4,100,30.08,10.0,Calm,Calm,-,N/A,Rain,Light Rain,0,2012-10-07 11:55:00
8:15 AM,46.4,46.4,100,30.09,10.0,Calm,Calm,-,N/A,,Overcast,0,2012-10-07 12:15:00
8:35 AM,48.2,46.4,93,30.10,10.0,SSW,3.5,-,N/A,,Overcast,210,2012-10-07 12:35:00
8:55 AM,48.2,46.4,93,30.11,10.0,Calm,Calm,-,N/A,,Overcast,0,2012-10-07 12:55:00
9:35 AM,48.2,46.4,93,30.12,10.0,SSW,3.5,-,N/A,,Overcast,210,2012-10-07 13:35:00
9:55 AM,48.2,46.4,93,30.12,10.0,SSW,3.5,-,N/A,,Overcast,200,2012-10-07 13:55:00
10:15 AM,48.2,46.4,93,30.13,10.0,SW,3.5,-,N/A,,Overcast,220,2012-10-07 14:15:00
10:35 AM,48.2,46.4,93,30.12,10.0,South,3.5,-,N/A,,Overcast,190,2012-10-07 14:35:00
10:55 AM,48.2,46.4,93,30.12,10.0,SW,3.5,-,N/A,,Overcast,220,2012-10-07 14:55:00
11:15 AM,48.2,46.4,93,30.13,10.0,SW,4.6,-,N/A,,Overcast,220,2012-10-07 15:15:00
11:35 AM,50.0,44.6,82,30.14,10.0,West,4.6,-,N/A,,Overcast,270,2012-10-07 15:35:00
11:55 AM,50.0,44.6,82,30.14,10.0,WNW,3.5,-,N/A,,Overcast,290,2012-10-07 15:55:00
12:15 PM,50.0,44.6,82,30.14,10.0,WNW,3.5,-,N/A,,Overcast,300,2012-10-07 16:15:00
12:55 PM,50.0,44.6,82,30.16,10.0,WNW,6.9,-,N/A,,Overcast,290,2012-10-07 16:55:00
1:15 PM,50.0,42.8,76,30.17,10.0,WNW,4.6,-,N/A,,Overcast,300,2012-10-07 17:15:00
1:35 PM,50.0,41.0,71,30.18,10.0,WNW,4.6,-,N/A,,Overcast,300,2012-10-07 17:35:00
1:55 PM,50.0,41.0,71,30.18,10.0,NW,6.9,-,N/A,,Overcast,310,2012-10-07 17:55:00
2:15 PM,50.0,39.2,66,30.17,10.0,Calm,Calm,-,N/A,,Mostly Cloudy,0,2012-10-07 18:15:00
2:35 PM,50.0,39.2,66,30.16,10.0,Calm,Calm,-,N/A,,Mostly Cloudy,0,2012-10-07 18:35:00
3:35 PM,50.0,37.4,62,30.17,10.0,Calm,Calm,-,N/A,,Mostly Cloudy,0,2012-10-07 19:35:00
3:55 PM,53.6,37.4,54,30.17,10.0,North,3.5,-,N/A,,Partly Cloudy,350,2012-10-07 19:55:00
4:15 PM,53.6,37.4,54,30.16,10.0,Calm,Calm,-,N/A,,Clear,0,2012-10-07 20:15:00
4:35 PM,51.8,35.6,54,30.16,10.0,Calm,Calm,-,N/A,,Partly Cloudy,0,2012-10-07 20:35:00
4:55 PM,53.6,37.4,54,30.16,10.0,North,4.6,-,N/A,,Partly Cloudy,10,2012-10-07 20:55:00
5:15 PM,53.6,37.4,54,30.15,10.0,Calm,Calm,-,N/A,,Clear,0,2012-10-07 21:15:00
5:35 PM,55.4,37.4,51,30.15,10.0,NNW,3.5,-,N/A,,Clear,340,2012-10-07 21:35:00
5:55 PM,53.6,37.4,54,30.15,10.0,Calm,Calm,-,N/A,,Clear,0,2012-10-07 21:55:00
6:15 PM,51.8,37.4,58,30.15,10.0,Calm,Calm,-,N/A,,Clear,0,2012-10-07 22:15:00
6:35 PM,51.8,39.2,62,30.15,10.0,Calm,Calm,-,N/A,,Clear,0,2012-10-07 22:35:00
6:55 PM,50.0,41.0,71,30.16,10.0,Calm,Calm,-,N/A,,Clear,0,2012-10-07 22:55:00
7:15 PM,48.2,41.0,76,30.16,10.0,Calm,Calm,-,N/A,,Unknown,0,2012-10-07 23:15:00
7:35 PM,46.4,41.0,81,30.16,10.0,Calm,Calm,-,N/A,,Unknown,0,2012-10-07 23:35:00
7:55 PM,44.6,41.0,87,30.16,10.0,Calm,Calm,-,N/A,,Unknown,0,2012-10-07 23:55:00
8:15 PM,44.6,42.8,93,30.18,10.0,Calm,Calm,-,N/A,,Unknown,0,2012-10-08 00:15:00
8:35 PM,42.8,41.0,93,30.17,10.0,Calm,Calm,-,N/A,,Unknown,0,2012-10-08 00:35:00
8:55 PM,42.8,41.0,93,30.18,10.0,Calm,Calm,-,N/A,,Unknown,0,2012-10-08 00:55:00
9:15 PM,41.0,39.2,93,30.18,10.0,Calm,Calm,-,N/A,,Unknown,0,2012-10-08 01:15:00
9:35 PM,41.0,39.2,93,30.19,10.0,Calm,Calm,-,N/A,,Unknown,0,2012-10-08 01:35:00
9:55 PM,41.0,39.2,93,30.20,10.0,Calm,Calm,-,N/A,,Unknown,0,2012-10-08 01:55:00
10:15 PM,41.0,39.2,93,30.20,10.0,Calm,Calm,-,N/A,,Unknown,0,2012-10-08 02:15:00
10:35 PM,39.2,39.2,100,30.20,10.0,Calm,Calm,-,N/A,,Unknown,0,2012-10-08 02:35:00
10:55 PM,39.2,39.2,100,30.20,10.0,Calm,Calm,-,N/A,,Unknown,0,2012-10-08 02:55:00
11:15 PM,39.2,39.2,100,30.20,10.0,Calm,Calm,-,N/A,,Unknown,0,2012-10-08 03:15:00
11:35 PM,39.2,39.2,100,30.19,10.0,Calm,Calm,-,N/A,,Unknown,0,2012-10-08 03:35:00
11:55 PM,39.2,39.2,100,30.19,10.0,Calm,Calm,-,N/A,,Unknown,0,2012-10-08 03:55:00